Theta_e
339 338 341 342 341 340 340 339 339 336 335 335 334 333 330 327 323 321 321 322 324 329 332 329 331 334 335 335 337 340 338 340 341 340 340 332 330 338 341 340 340 340 340 340 341 343 344 344 345 346 347 348 349 349 348 348 348 349 348 349 348 348 348 347 346 346 346 346 347 347 347 347 347 348
340 339 338 340 341 343 342 343 343 339 334 333 334 334 332 331 327 325 323 323 325 326 331 331 328 333 335 336 337 339 339 345 344 339 342 335 331 335 339 340 340 340 340 339 338 340 341 342 342 342 341 342 343 345 347 348 348 348 348 348 348 348 348 347 347 346 346 345 345 346 346 347 346 346
342 340 338 338 338 341 342 342 343 343 339 332 336 335 335 333 331 329 325 321 327 331 329 331 332 334 335 337 337 339 339 343 345 341 341 338 337 337 337 339 339 339 338 337 337 336 336 337 338 338 339 339 340 342 343 345 346 346 346 347 347 347 347 346 345 345 345 345 345 345 345 345 345 345
344 342 340 339 338 339 340 341 342 341 342 339 334 337 336 334 332 331 329 327 327 331 331 332 333 334 336 337 337 337 340 342 349 342 341 340 343 338 334 339 338 337 336 336 335 334 333 333 335 337 338 339 341 343 342 342 342 343 343 345 344 345 344 342 342 343 343 343 342 342 341 341 342 342
345 343 342 341 340 339 339 340 341 341 341 341 337 336 336 335 334 332 330 328 328 330 333 335 337 338 337 337 338 337 338 339 343 346 340 339 338 338 337 337 339 337 335 334 333 333 332 332 334 335 337 338 341 343 343 341 339 339 339 339 337 338 340 338 338 339 340 339 339 339 339 339 339 339
347 345 343 342 341 341 340 340 340 340 341 341 340 336 336 334 335 335 332 329 327 328 328 333 335 336 338 335 338 337 336 337 341 343 341 340 338 338 339 339 340 341 337 333 331 332 331 331 332 333 335 337 338 339 339 339 337 337 336 334 333 333 333 333 335 337 337 337 337 337 338 338 338 338
347 345 344 343 343 343 341 341 340 340 340 340 340 339 337 335 334 336 334 330 328 328 328 330 333 334 336 335 335 337 337 338 340 341 340 339 341 341 339 339 340 341 338 335 332 331 331 332 332 332 334 335 335 336 334 333 333 333 331 330 332 332 331 331 333 334 334 334 335 335 335 335 335 335
347 346 345 344 344 343 342 341 341 341 340 339 339 339 338 336 335 335 336 333 330 329 328 329 333 334 334 335 335 337 339 337 337 339 340 339 339 340 341 340 339 339 337 336 333 332 331 331 331 331 332 332 331 330 329 329 330 329 329 328 328 328 328 327 328 330 330 329 330 332 332 333 331 329
349 347 346 346 345 343 342 342 341 341 340 340 339 339 338 337 336 336 336 335 333 330 329 330 331 335 334 335 336 337 336 336 337 338 338 338 338 338 340 341 341 340 337 336 335 333 332 332 331 331 331 331 330 329 328 327 328 328 327 326 326 326 326 325 323 325 325 325 326 325 326 328 328 328
352 349 347 347 346 345 343 342 342 342 341 340 339 338 338 338 337 335 335 336 334 332 331 331 330 329 334 334 333 335 336 335 335 335 337 336 337 337 337 339 341 342 341 339 338 335 333 333 331 331 331 331 329 328 327 326 326 325 324 321 321 323 324 324 324 324 323 323 325 326 326 326 326 326
354 352 350 348 347 346 345 344 343 342 342 342 340 340 339 339 337 336 335 335 334 334 333 332 332 331 332 334 333 334 336 335 335 334 333 334 336 337 336 336 339 340 340 340 339 338 337 336 334 327 326 328 329 328 327 326 325 324 321 319 319 320 320 320 322 323 322 322 322 321 319 320 323 325
356 355 353 351 349 348 347 346 344 343 342 342 341 341 340 339 337 336 336 334 334 334 333 332 332 332 332 330 334 334 333 332 331 333 333 332 333 334 336 337 337 338 339 338 339 338 336 335 333 328 327 328 329 328 328 329 328 326 323 320 322 322 320 320 320 321 320 319 318 318 317 316 319 321
356 356 355 354 352 351 347 339 340 340 338 343 341 341 341 340 338 337 336 335 334 334 334 333 333 332 331 332 332 333 333 332 332 333 332 331 332 334 334 336 338 339 337 338 337 336 336 334 333 332 330 330 330 329 330 331 333 329 323 322 324 324 322 320 320 321 320 319 317 316 316 317 318 321
355 356 356 357 347 339 338 337 333 331 331 332 341 343 342 341 339 338 337 335 335 334 333 333 333 331 331 332 333 333 335 336 335 331 331 331 331 328 331 333 335 339 338 336 335 336 337 335 333 332 331 333 337 332 331 330 331 332 327 324 323 324 324 321 320 320 319 318 317 316 315 316 318 318
355 355 356 356 354 344 338 340 332 331 329 329 329 332 335 336 341 339 337 337 336 335 334 335 334 333 332 332 334 334 335 336 335 334 332 332 331 330 328 327 332 340 339 336 335 335 338 337 334 333 333 334 335 336 334 333 332 329 328 326 324 324 324 324 322 321 319 318 317 316 315 315 316 316
355 355 355 355 356 356 353 351 346 336 330 327 327 328 329 330 331 334 339 338 336 335 334 334 334 334 333 333 334 334 334 334 335 335 334 332 331 330 329 329 329 334 341 336 334 334 336 338 336 334 335 336 336 337 334 332 331 329 327 326 326 325 324 324 325 324 322 320 320 320 319 318 318 317
355 355 354 354 355 357 346 349 351 350 345 329 324 325 326 327 327 328 330 332 340 339 336 335 334 335 335 334 335 336 336 336 334 334 334 333 332 332 331 331 332 334 341 337 334 333 335 337 336 334 336 337 337 338 334 332 331 329 327 327 327 326 324 324 324 324 323 321 320 319 318 317 316 316
355 355 354 353 353 354 355 354 352 352 350 348 343 336 334 336 335 327 325 325 327 334 339 337 335 337 338 336 337 339 338 335 334 333 333 334 334 333 332 334 335 335 343 338 335 332 334 336 336 334 335 336 337 337 334 330 329 329 327 326 325 324 324 323 323 323 322 321 319 317 315 314 313 313
356 356 356 355 354 354 354 355 352 352 351 350 348 346 342 340 340 341 340 337 336 336 338 339 339 339 339 339 339 339 340 339 338 337 336 336 336 336 337 336 333 334 343 341 337 331 335 335 335 336 337 336 335 336 330 328 328 328 326 326 325 324 323 323 323 321 320 319 318 315 314 312 311 310
356 357 357 356 355 355 355 345 333 338 352 351 349 348 347 345 344 343 336 335 335 339 341 340 341 341 341 335 340 341 340 340 340 340 339 337 335 334 333 332 335 334 339 342 338 333 332 334 335 335 337 335 333 334 335 329 326 326 325 325 324 323 321 321 321 320 319 318 316 315 312 309 308 307
355 355 356 356 356 356 355 342 332 329 330 350 350 349 348 348 347 346 347 333 327 327 326 327 328 329 330 329 326 325 328 338 338 338 335 333 334 332 330 331 332 333 336 340 340 336 332 332 334 333 332 332 332 331 331 331 327 324 323 323 323 321 320 319 318 318 318 317 315 315 314 310 308 309
354 355 347 355 356 355 355 337 329 328 331 345 349 350 349 348 347 348 349 348 342 326 324 325 326 327 328 328 328 326 324 325 330 338 333 335 335 332 332 329 331 333 335 338 341 334 333 332 333 332 325 328 329 331 330 329 327 324 320 319 321 320 319 318 316 317 316 315 315 313 312 310 308 308
354 355 352 345 344 349 347 333 328 325 329 345 348 349 349 348 348 349 350 348 347 346 340 337 335 336 331 334 334 336 326 325 332 338 339 338 335 333 332 332 331 330 332 338 341 334 333 330 331 331 323 323 324 326 329 328 326 325 325 324 323 319 319 318 315 313 313 313 313 313 311 309 309 310
353 354 355 349 331 326 327 326 323 321 320 341 348 349 348 347 347 351 351 351 350 348 347 345 343 341 342 341 340 339 339 336 337 337 339 339 338 335 334 333 332 330 331 336 342 336 335 334 330 331 329 323 321 321 324 324 324 325 325 324 323 321 321 319 315 312 310 310 310 310 310 309 309 310
353 353 354 355 339 327 323 321 319 318 316 320 343 349 349 349 349 344 351 351 338 347 347 347 346 345 344 343 342 341 340 340 339 338 337 340 340 337 335 334 333 333 335 337 339 338 334 332 331 329 327 325 318 319 319 322 322 323 325 323 322 322 320 319 318 316 311 308 308 308 307 308 308 310
353 354 355 356 343 323 317 314 312 310 312 314 326 337 328 328 328 341 348 350 346 343 343 344 345 346 345 344 343 342 341 341 341 341 340 339 340 341 340 337 335 332 333 337 333 340 336 330 333 329 328 325 318 319 317 318 321 322 323 321 321 321 320 320 319 318 317 316 315 311 312 310 310 309
354 355 355 347 316 309 307 307 308 308 309 311 323 316 316 318 319 322 333 337 341 338 338 340 342 344 345 344 343 343 342 342 342 342 341 341 340 340 341 341 340 338 340 338 341 341 338 333 335 331 328 327 322 316 318 316 314 319 319 320 321 320 321 320 319 318 317 315 315 311 308 308 309 310
338 341 339 330 312 307 306 307 309 311 311 321 314 313 314 315 317 328 333 334 336 336 334 334 335 338 342 344 345 345 345 344 344 343 343 342 342 341 340 341 344 342 340 337 338 341 339 335 333 334 332 327 323 316 315 315 316 318 318 319 318 317 316 317 316 319 318 315 314 314 312 311 313 310
339 323 309 306 307 309 309 312 314 317 318 316 313 313 313 317 327 332 335 337 337 337 337 337 337 338 341 343 345 348 348 347 346 344 342 341 340 341 342 341 341 341 341 339 338 340 339 336 333 332 330 328 325 320 318 314 314 314 315 314 310 312 314 314 313 313 314 311 309 308 308 309 309 315
312 312 314 315 315 316 319 325 326 326 327 317 315 315 317 328 332 333 335 336 336 337 338 339 340 342 344 345 347 348 348 347 345 343 339 336 336 338 338 337 337 339 341 339 338 339 339 336 333 331 328 326 326 321 318 315 312 313 315 312 310 316 315 312 310 310 314 310 310 311 310 310 311 315
323 322 322 320 315 315 315 316 316 317 320 323 325 327 328 330 332 333 334 334 334 335 335 336 339 342 344 346 346 345 346 345 343 338 336 335 334 335 336 335 334 335 337 338 338 339 338 335 332 329 326 323 322 321 318 318 314 312 313 312 311 307 308 311 310 308 309 310 311 312 313 313 315 322
322 322 318 319 324 324 324 324 323 323 324 323 323 324 325 325 327 327 324 325 332 333 335 336 337 337 339 339 342 343 344 345 342 337 335 334 334 334 335 333 332 333 333 333 334 337 340 334 330 329 328 323 320 317 316 316 315 313 312 313 312 309 311 310 308 308 309 308 307 307 308 311 313 312
319 319 320 321 321 321 320 320 320 321 322 323 323 323 324 324 325 325 325 325 325 327 329 330 332 333 335 335 337 338 339 340 342 338 335 335 334 334 334 332 332 331 329 328 329 331 332 328 328 327 326 324 323 319 316 312 312 312 311 311 311 309 310 310 309 308 308 307 307 307 307 309 311 312
315 315 315 314 316 317 318 319 320 321 322 323 323 324 320 324 324 324 323 324 324 325 325 326 327 328 329 330 332 334 335 337 340 338 330 333 334 333 332 331 332 332 330 327 326 326 327 325 325 323 323 321 320 319 319 316 312 311 311 311 311 309 311 310 309 308 309 307 306 306 305 307 308 309
314 314 315 316 317 318 317 318 320 323 323 323 323 324 324 325 324 323 324 324 324 324 324 324 325 325 326 327 329 330 331 333 336 337 333 334 334 333 332 331 331 331 329 327 325 324 324 321 319 317 316 316 315 315 323 319 313 312 311 309 310 310 310 311 309 308 308 308 307 306 306 305 306 307
314 314 317 319 321 322 323 324 324 324 325 325 325 326 325 325 326 325 325 324 325 325 325 325 324 324 325 325 326 327 329 329 333 335 334 332 331 332 332 331 331 331 329 326 323 323 322 320 319 316 313 313 312 311 313 320 318 313 311 309 310 309 310 310 313 310 309 308 308 306 305 304 304 307
318 318 321 324 325 325 325 326 326 327 327 327 327 327 326 325 325 326 326 324 326 325 325 325 325 324 324 324 324 323 325 327 329 332 333 333 331 331 330 329 329 329 326 324 323 321 321 319 319 317 314 312 311 310 311 315 315 315 314 311 310 311 310 310 311 310 310 309 309 306 305 304 305 306
319 322 325 326 326 327 326 327 327 327 327 327 327 326 325 325 325 326 326 325 324 324 324 325 324 324 324 324 325 325 326 328 329 329 329 331 330 330 330 329 329 326 323 322 321 321 320 319 318 317 315 312 311 310 309 311 312 314 313 313 311 311 313 310 308 308 308 308 308 308 305 304 305 307
321 324 326 326 326 327 326 326 327 326 327 326 325 325 324 324 324 324 324 323 323 323 324 324 323 323 322 324 324 324 325 326 327 328 329 329 329 330 330 330 328 324 322 319 319 319 319 317 317 317 316 314 312 311 313 311 310 314 314 309 312 312 312 310 309 309 307 307 308 307 307 307 308 313
324 324 326 326 326 327 327 327 326 326 325 325 325 325 324 323 323 322 322 321 322 322 323 323 322 320 322 323 324 326 326 326 326 326 327 328 328 328 328 327 325 321 320 318 317 317 317 316 317 317 317 317 316 316 316 313 310 310 314 312 308 312 313 312 310 308 306 306 305 303 304 304 305 303
325 325 326 326 326 327 326 326 326 326 325 325 325 321 323 322 321 321 321 321 321 322 322 323 323 322 322 322 322 322 323 324 326 323 322 320 318 318 322 320 320 319 317 315 315 315 315 317 322 320 320 315 313 314 311 306 305 306 308 311 308 308 311 313 313 310 309 307 306 305 304 303 301 302
326 325 324 325 327 326 326 326 326 325 325 325 324 322 321 321 321 317 321 321 321 321 322 322 322 321 321 321 321 319 319 318 318 318 319 319 319 318 317 317 317 317 316 315 315 316 319 322 321 318 315 314 314 310 307 307 305 305 307 308 311 310 308 309 310 312 314 308 305 303 303 303 302 302
325 324 324 325 326 326 326 326 325 325 324 323 321 320 319 320 320 321 321 321 321 320 320 320 321 320 320 320 320 320 320 319 320 320 319 319 319 318 317 318 318 317 317 316 317 318 319 319 317 315 314 313 312 311 308 307 306 305 306 306 307 310 311 311 309 309 310 310 309 309 307 304 300 298
321 322 323 324 325 325 325 324 322 321 321 320 318 318 319 319 319 320 320 320 320 320 320 319 319 318 318 319 319 320 319 318 318 318 318 318 318 318 317 316 316 317 317 316 316 316 317 317 316 315 313 311 311 310 309 308 306 307 305 305 308 306 306 309 311 310 310 310 310 309 310 310 308 308
318 318 319 319 320 321 320 321 318 318 318 318 318 318 319 319 319 319 320 320 320 320 319 319 318 318 318 318 318 317 318 314 316 318 318 318 317 317 317 317 316 316 316 316 315 314 315 315 315 315 314 312 311 312 311 310 308 307 307 305 305 306 306 308 305 306 306 307 309 310 309 310 311 310
Wind_Speed
5 4 5 6 6 5 4 3 3 5 3 5 6 6 7 6 5 4 5 6 6 5 6 5 8 10 9 9 8 8 8 9 11 9 8 8 7 12 16 16 16 15 15 15 15 15 15 15 15 14 14 13 13 12 11 10 10 10 10 10 11 11 11 9 8 8 8 9 9 9 10 11 11 11
5 5 4 4 5 4 4 5 4 4 5 5 6 6 6 7 7 6 7 7 5 5 4 5 4 6 9 9 7 8 9 11 13 9 9 9 9 13 16 17 17 16 16 16 15 15 15 15 15 14 14 14 13 13 12 11 10 10 11 11 12 11 11 9 8 8 9 9 10 9 10 11 11 11
6 6 6 5 6 5 5 5 4 4 4 6 6 6 5 6 6 7 5 4 6 5 7 6 4 6 10 9 9 7 8 10 13 10 9 9 12 16 14 18 18 17 17 16 16 16 16 15 15 14 13 13 13 13 12 12 11 11 11 12 11 10 10 9 8 8 9 9 9 8 9 10 10 11
6 6 7 7 7 6 5 6 5 6 5 5 6 6 6 6 7 7 6 8 9 5 6 6 5 5 7 8 9 9 7 8 15 9 9 10 13 11 9 15 18 17 17 16 16 16 16 16 16 15 14 13 13 11 12 12 12 12 11 11 10 9 9 8 7 7 7 8 7 7 8 9 10 10
6 8 8 8 8 6 6 7 7 6 6 5 6 5 6 7 6 7 7 8 9 5 3 4 5 4 5 5 9 10 9 8 8 9 8 9 9 9 8 8 14 17 17 16 16 16 16 17 16 15 14 14 13 10 12 12 12 12 12 11 10 9 8 7 6 7 7 7 7 7 8 8 8 8
7 8 9 9 8 7 8 8 8 8 7 6 6 6 7 7 7 6 7 8 6 10 3 4 4 2 4 6 5 10 10 9 6 9 8 7 8 9 8 8 8 15 17 17 17 16 17 17 16 15 15 15 14 13 13 12 12 12 11 10 9 8 7 7 7 7 6 7 7 7 7 7 7 7
9 8 9 10 9 7 8 9 9 8 8 7 7 8 7 7 7 7 7 6 7 8 8 4 5 5 4 7 7 8 8 8 8 10 9 9 7 7 8 8 7 12 15 16 16 17 17 16 16 16 16 15 14 14 13 13 12 11 11 10 9 7 7 8 8 7 7 6 6 6 6 6 7 6
10 11 10 11 10 9 10 10 9 8 7 8 8 8 8 7 8 7 6 7 7 6 7 5 7 5 5 6 5 5 6 7 7 8 8 7 8 8 7 8 8 9 14 16 17 16 16 17 16 16 16 15 15 14 13 12 12 11 11 10 8 8 9 9 8 7 6 6 5 6 6 6 6 5
12 12 13 13 11 10 11 10 9 9 10 9 8 9 8 8 7 5 6 8 6 7 9 7 4 4 5 5 6 6 7 7 6 5 7 8 8 8 8 7 8 11 15 16 17 16 16 16 16 16 16 16 15 14 13 13 12 12 11 10 8 10 9 9 9 7 6 6 6 6 5 5 5 5
12 12 13 13 11 11 12 12 11 10 11 10 10 10 9 8 6 7 6 6 7 8 10 8 8 4 6 5 6 6 7 8 7 7 6 5 6 7 8 8 7 6 6 6 8 11 12 14 16 16 16 16 15 14 13 13 12 12 12 10 10 11 10 10 8 8 7 7 7 6 5 5 4 4
12 13 12 12 11 12 13 13 12 11 10 10 12 12 11 9 7 7 7 7 8 8 9 9 8 8 6 6 8 6 6 7 8 9 7 8 8 6 8 9 7 6 7 9 12 11 11 13 12 14 16 16 16 15 14 13 14 13 12 11 12 12 11 10 9 9 9 8 7 7 6 5 4 4
12 13 13 12 12 13 12 13 12 11 11 10 10 10 9 8 8 9 8 7 8 9 9 10 10 8 8 5 5 2 3 6 7 8 9 12 10 9 8 9 8 7 7 7 7 8 9 10 11 12 13 15 15 14 13 14 13 14 13 13 13 13 12 12 11 11 10 9 8 7 6 5 5 5
12 12 12 12 12 14 16 18 16 14 13 10 11 11 9 10 10 9 9 9 8 9 10 10 8 8 8 8 7 8 9 11 14 8 7 9 8 7 7 8 7 7 8 8 6 7 8 7 7 7 7 8 12 12 14 11 14 14 13 14 14 14 14 13 12 11 11 9 8 7 7 6 6 6
12 13 12 13 18 18 18 18 19 19 18 18 15 12 11 11 11 11 11 11 10 10 12 12 11 11 12 11 11 12 13 11 7 6 8 10 9 3 7 6 6 7 7 7 9 9 6 7 7 6 8 8 8 7 8 9 10 12 15 15 16 16 15 14 13 12 11 10 8 8 8 7 7 6
13 12 13 12 14 15 15 17 20 20 20 20 20 21 18 15 14 12 13 13 12 11 12 12 11 12 14 13 12 13 12 9 11 12 9 10 7 9 9 11 5 7 10 9 9 10 6 7 8 8 8 8 7 7 9 13 15 15 15 17 17 16 15 14 14 13 12 10 10 9 9 8 8 6
11 12 12 11 10 11 14 15 15 17 20 21 22 22 22 20 20 19 16 14 11 12 13 13 13 12 13 14 12 12 10 12 11 11 9 10 11 11 11 11 12 6 11 10 9 11 5 7 8 8 9 8 8 9 12 15 15 15 15 16 17 17 15 15 14 14 12 11 11 10 10 9 7 7
12 11 11 11 10 11 17 15 14 13 15 19 22 22 22 22 21 21 23 21 17 13 14 14 15 15 14 14 14 14 14 10 10 9 10 10 10 12 13 13 12 7 11 10 9 11 7 7 8 10 9 8 7 8 11 15 15 15 16 16 17 16 15 15 15 13 13 12 12 11 10 9 9 8
13 13 12 12 12 12 11 11 13 13 14 13 13 14 14 15 19 21 24 24 23 19 15 14 16 17 12 15 16 14 10 10 13 12 13 12 12 12 15 17 15 5 8 12 8 8 8 7 8 10 9 7 7 7 10 16 16 16 16 16 16 15 16 16 15 14 14 13 12 11 10 10 10 9
13 13 13 13 13 13 12 11 12 12 13 12 12 13 14 16 17 17 19 18 16 16 16 16 18 18 15 16 17 12 9 15 14 14 16 16 16 15 10 7 4 5 8 9 8 12 8 6 8 10 8 6 7 6 9 15 16 16 15 15 15 16 16 16 15 15 14 13 13 12 11 11 10 10
12 12 13 13 13 14 13 14 17 15 12 12 14 15 15 14 15 17 21 21 19 19 18 18 19 18 18 18 16 14 12 11 12 11 10 7 6 6 9 13 8 10 7 10 12 9 7 7 10 9 7 6 7 7 7 11 15 15 15 14 15 16 17 16 16 15 14 14 13 12 12 11 12 8
12 12 13 13 13 13 13 15 16 17 15 13 15 15 15 14 14 18 17 16 20 23 25 25 25 26 24 21 20 18 20 16 12 9 10 14 9 9 13 13 10 11 7 10 11 9 9 6 9 8 6 7 8 8 8 6 10 15 14 15 16 17 17 16 16 15 15 14 13 12 12 11 12 5
12 13 18 16 14 14 14 15 17 17 14 13 15 15 15 16 18 20 13 6 13 22 24 25 26 26 24 23 22 19 18 20 16 14 17 15 10 14 14 14 12 9 9 11 10 8 12 6 7 8 3 3 5 7 7 7 7 10 13 16 17 17 17 17 16 15 15 14 13 12 12 12 10 3
12 12 12 17 17 16 16 17 16 17 15 14 15 15 15 18 20 21 8 11 14 10 11 14 17 19 23 21 20 21 25 23 22 20 20 13 13 15 14 14 9 9 12 10 14 13 10 8 8 9 4 6 4 4 7 7 6 6 7 8 10 15 16 16 15 15 15 14 13 11 12 14 7 2
11 11 11 12 16 19 20 19 17 16 18 16 15 14 15 17 21 16 11 15 13 12 13 14 14 18 20 18 19 19 19 19 19 21 19 17 15 15 16 15 15 16 12 9 17 14 9 9 8 9 9 6 5 4 5 6 7 7 7 7 7 10 12 12 11 14 13 11 12 12 13 14 6 4
11 10 10 9 12 18 20 19 18 17 16 16 15 15 15 16 19 17 13 16 14 9 10 12 14 15 14 15 16 16 17 18 17 17 19 18 18 18 18 17 16 16 13 10 20 12 10 10 10 8 7 6 4 4 3 5 5 7 7 8 8 6 6 7 6 7 8 11 11 13 12 12 9 8
9 10 9 10 5 6 7 5 7 11 12 13 9 14 19 21 21 18 16 14 2 2 8 12 15 14 14 14 14 15 15 16 17 17 17 19 20 19 18 18 17 14 14 9 21 13 10 8 12 11 9 8 4 5 5 4 5 6 5 6 7 8 8 8 7 6 6 6 7 8 11 13 12 11
7 4 3 2 7 6 8 8 9 9 10 7 9 16 19 20 21 15 11 14 5 5 12 14 15 15 14 14 14 14 15 15 16 17 18 20 20 19 18 19 18 16 10 10 17 17 14 10 11 14 12 11 8 5 6 7 4 5 4 6 6 6 7 7 7 7 6 6 7 8 9 8 9 8
3 3 3 5 10 11 12 11 11 12 11 10 13 14 16 16 15 11 11 11 11 10 11 14 17 17 17 16 16 16 16 16 17 18 19 19 18 17 15 13 13 14 13 15 17 16 15 13 12 13 14 13 11 11 9 3 5 10 9 7 5 5 5 6 6 6 6 6 6 4 3 3 3 4
2 4 6 8 8 8 9 10 10 9 10 11 11 13 14 13 8 9 10 11 10 10 11 12 14 16 17 18 18 18 16 15 15 14 10 5 3 8 12 13 14 12 13 13 17 18 17 16 13 12 11 11 12 10 9 9 8 8 9 9 4 6 6 6 6 7 6 6 7 6 6 6 4 4
5 5 5 6 7 7 7 6 5 6 7 12 14 14 13 8 8 9 10 11 11 13 13 13 14 15 15 15 17 17 16 15 13 12 11 10 12 14 14 12 12 15 16 16 16 16 17 16 13 13 12 10 11 10 9 9 5 7 8 9 6 3 3 6 6 6 6 6 5 5 6 5 5 5
2 3 3 4 4 3 6 4 4 5 6 7 7 6 7 7 7 8 8 9 11 12 13 13 13 14 14 14 15 16 15 15 12 9 12 14 16 16 15 16 16 15 16 16 17 18 17 15 14 16 14 11 8 9 10 9 9 9 8 7 9 9 6 6 6 6 5 5 2 1 1 3 2 4
2 2 3 3 4 5 6 7 7 6 6 5 6 7 7 8 8 10 13 13 10 11 11 13 14 15 14 16 17 16 16 15 12 11 14 15 16 16 14 13 15 15 14 13 13 15 17 17 16 13 15 14 13 6 6 8 10 10 8 7 7 4 5 7 6 5 4 5 2 3 4 4 5 4
3 5 7 8 7 7 5 5 6 6 7 7 6 7 7 7 7 8 7 9 10 10 11 13 13 15 14 16 16 16 17 16 14 11 13 14 15 14 16 19 18 17 17 16 15 15 14 10 11 13 12 11 12 13 10 7 5 7 9 7 6 5 4 5 6 6 4 4 3 3 4 4 5 6
6 5 5 3 3 5 5 6 6 7 6 7 8 8 9 8 8 8 8 9 10 10 11 12 14 15 15 16 17 16 17 16 15 13 15 13 12 12 15 17 17 17 17 17 16 14 13 12 10 7 8 7 4 6 10 11 8 7 6 7 7 6 6 5 5 4 6 4 5 5 3 4 5 4
6 5 5 3 3 3 3 4 5 5 6 7 8 8 9 9 9 9 9 9 9 11 12 13 13 15 15 17 17 17 17 17 15 12 12 16 17 21 23 23 21 18 17 17 16 15 16 15 13 12 11 10 8 3 7 5 8 6 5 5 6 7 6 5 5 4 4 3 2 5 5 3 4 5
4 3 5 4 3 2 3 4 5 5 6 6 7 7 8 9 9 9 10 10 11 12 12 13 14 15 16 16 17 17 17 16 15 14 13 13 15 14 14 16 17 16 15 14 13 13 15 17 17 16 15 12 10 7 2 5 7 8 8 5 4 5 5 5 3 3 5 5 5 6 6 6 6 5
6 4 2 2 3 4 5 5 5 6 5 6 6 6 7 8 9 9 11 11 11 11 12 13 14 15 16 17 17 16 15 14 14 14 15 14 14 13 13 13 14 14 15 15 16 16 16 18 17 17 17 15 13 12 7 3 4 3 7 7 5 5 5 4 4 3 4 5 5 6 6 6 5 6
5 2 3 4 4 4 4 4 5 5 6 6 6 7 7 8 8 9 10 10 11 11 12 13 14 15 15 15 15 14 12 12 12 13 12 11 12 14 15 15 14 12 13 12 13 15 15 16 16 16 17 16 13 10 7 2 3 2 6 5 6 5 4 5 5 5 4 3 7 7 3 3 5 7
3 4 5 4 4 4 4 4 5 5 6 6 6 6 7 8 9 9 9 10 11 12 12 13 13 14 16 16 14 13 12 10 10 10 10 10 12 13 15 18 17 15 14 11 9 9 11 15 15 14 15 14 13 11 10 9 4 3 5 12 7 6 5 6 6 5 4 4 6 2 3 2 2 4
5 4 4 4 4 4 4 4 4 4 5 5 6 6 7 8 8 9 9 10 11 11 11 12 14 15 14 14 13 12 11 11 10 9 9 9 11 14 13 7 9 12 13 14 16 15 14 13 13 13 12 11 10 10 10 7 3 2 3 1 7 8 7 7 6 6 3 6 3 3 5 1 4 3
5 4 4 3 3 3 4 4 4 4 5 5 5 6 6 6 7 7 8 9 9 10 11 11 12 13 14 14 13 11 9 7 5 4 5 8 10 12 2 12 11 7 10 15 12 10 11 12 16 22 17 12 12 12 10 7 4 2 1 1 4 6 9 11 8 7 6 4 6 5 6 4 4 1
4 3 2 2 3 3 3 4 4 4 4 4 5 6 6 7 7 10 10 11 10 10 10 10 11 11 12 12 11 11 11 12 11 9 6 9 13 18 26 18 13 17 14 12 13 14 12 14 15 13 11 10 10 10 7 7 5 2 1 0 1 6 6 9 8 9 8 7 5 2 1 0 0 2
1 2 2 3 3 3 3 4 4 4 4 4 5 5 6 7 7 8 8 9 9 9 9 9 9 9 10 10 11 11 11 12 11 11 11 11 15 19 20 19 17 15 15 13 12 13 12 12 11 10 8 8 7 8 8 7 4 5 3 2 3 3 4 8 9 10 8 7 8 8 7 6 5 2
1 1 1 2 2 3 3 4 4 4 4 4 4 5 5 6 7 7 7 7 8 8 8 8 8 9 9 9 9 11 12 12 11 12 11 11 15 17 18 17 17 15 14 13 13 12 11 10 8 9 9 7 7 7 8 6 4 5 5 3 1 2 4 2 1 1 4 8 11 13 12 11 9 7
1 1 2 2 2 3 3 4 4 5 4 4 4 5 5 5 6 6 7 7 7 8 8 8 8 8 8 8 8 10 9 10 10 11 12 13 13 13 14 16 16 15 13 12 13 11 10 9 7 7 7 7 6 7 7 7 6 5 4 3 4 4 3 2 5 4 3 4 8 13 16 14 14 4
Wind_Direction
193 191 187 195 201 215 203 206 213 221 212 207 192 182 179 170 165 201 224 237 214 246 204 192 226 209 214 215 214 209 209 211 205 208 205 205 211 215 215 218 221 221 222 224 225 226 228 230 231 233 233 234 235 236 236 240 245 249 253 257 260 263 265 264 261 260 260 263 262 265 269 272 274 277
198 202 199 198 206 220 203 209 207 196 204 211 201 197 192 168 186 187 195 247 212 236 251 210 218 205 214 214 215 208 212 211 207 206 206 205 212 216 215 218 221 222 223 224 225 227 230 231 233 234 235 237 238 238 239 239 241 245 249 251 256 258 261 261 257 256 256 259 266 270 275 280 284 286
190 204 211 210 219 215 216 217 217 219 186 210 211 210 193 194 187 184 178 222 266 189 222 242 223 192 209 207 209 212 215 213 209 206 206 209 213 214 218 219 222 223 223 224 225 227 230 232 233 234 234 236 238 240 239 240 242 245 249 251 253 254 256 258 257 258 261 262 266 269 276 281 284 285
196 200 210 214 216 219 218 222 217 216 214 202 209 208 197 207 196 177 185 210 247 214 209 229 245 214 208 206 205 214 214 215 209 204 206 211 213 216 222 223 223 225 226 225 224 225 228 232 234 235 236 236 237 231 236 237 240 243 247 249 250 252 255 254 251 253 256 262 266 271 275 278 281 284
198 204 209 215 219 210 212 223 224 219 216 208 210 212 198 205 198 180 190 212 249 284 231 229 240 231 190 215 211 211 211 208 210 209 209 207 209 213 217 221 223 225 228 227 226 225 227 230 233 234 235 235 236 227 232 235 236 239 243 247 249 250 252 253 253 253 256 259 264 267 272 274 279 282
207 204 211 218 217 208 215 218 221 219 217 209 213 217 206 210 205 201 180 215 216 249 283 267 261 267 191 227 204 207 207 216 205 209 213 213 210 213 212 217 225 223 225 227 225 225 226 228 231 232 233 234 234 234 234 234 233 235 238 241 243 246 247 250 247 247 247 252 255 261 267 272 276 279
205 207 213 219 212 206 217 223 225 220 220 212 214 220 211 215 213 204 204 188 222 235 250 226 251 235 216 212 222 218 219 211 201 208 216 214 214 217 212 213 221 221 220 220 222 223 226 227 227 228 230 230 230 229 229 229 228 229 232 232 234 236 236 237 237 237 241 243 254 264 271 274 276 280
204 209 213 219 211 206 214 223 224 223 221 218 218 222 220 217 219 210 205 212 213 224 242 245 216 232 215 237 244 230 224 215 215 217 223 221 221 218 215 214 216 217 212 215 218 221 224 225 224 223 225 227 227 224 224 223 221 222 225 226 221 222 231 233 236 237 239 245 255 264 271 278 285 293
208 210 214 217 208 206 215 223 223 220 220 222 220 224 223 219 220 215 209 218 214 222 232 251 231 226 232 232 229 212 213 236 241 237 229 223 223 225 223 219 220 218 210 213 218 221 224 226 224 222 223 225 225 222 219 218 217 217 221 219 208 221 228 229 231 234 236 238 247 256 262 267 278 288
210 214 217 218 208 207 212 221 220 218 220 221 224 227 227 221 212 215 221 216 220 223 236 236 257 230 225 245 239 221 213 219 232 242 246 254 241 228 233 231 226 218 212 215 225 229 232 231 229 225 224 224 224 221 215 214 213 214 218 207 208 218 222 224 223 223 224 230 237 243 251 258 270 279
216 217 220 220 213 211 215 220 220 218 219 219 225 225 227 221 210 218 219 214 220 226 236 243 238 246 235 215 237 237 214 225 217 218 228 243 233 227 224 233 231 227 227 223 216 214 213 217 219 223 223 223 223 219 214 213 210 212 211 202 209 217 218 217 216 217 219 223 227 233 241 253 261 271
220 219 221 222 218 217 218 219 223 215 218 218 226 228 225 221 213 220 223 218 221 228 236 237 241 235 240 245 250 249 189 231 252 227 213 225 224 226 226 227 224 228 227 230 231 230 226 230 228 229 226 225 223 220 217 215 212 212 206 201 208 214 213 211 211 213 216 216 217 224 235 238 245 256
221 223 223 224 222 219 220 220 221 219 214 212 221 226 217 219 216 221 222 222 219 229 234 242 238 241 235 234 229 228 218 215 224 214 205 236 229 220 228 238 225 219 216 227 223 221 204 209 217 211 215 221 218 225 217 218 215 213 204 202 207 210 210 208 209 211 212 207 208 217 223 228 234 244
224 224 224 226 224 221 220 221 222 224 221 218 218 219 211 215 214 218 220 219 218 222 229 233 230 231 235 228 221 227 227 224 228 217 201 225 228 193 240 258 232 212 212 217 227 231 203 200 216 206 217 226 206 214 206 216 211 213 206 204 206 208 207 204 204 207 206 201 203 211 218 225 230 232
228 229 227 230 227 224 224 225 223 223 223 223 224 226 219 212 209 215 218 223 216 219 228 233 229 231 236 233 226 227 231 220 218 220 210 219 206 206 217 239 244 198 197 216 224 238 207 190 209 213 217 217 208 208 211 211 210 210 205 204 205 207 205 200 201 202 199 197 204 210 218 224 224 224
230 232 232 230 230 226 223 225 226 227 227 226 226 228 227 224 219 216 214 218 218 219 228 232 230 229 232 237 228 229 224 227 222 223 213 212 209 214 217 226 229 207 179 201 212 236 203 190 212 216 220 217 210 208 208 208 209 210 207 204 207 207 200 197 200 198 193 198 204 211 217 222 225 220
228 231 234 236 231 232 225 224 226 225 229 231 232 231 232 232 228 227 228 224 220 215 224 230 235 226 228 234 236 221 221 217 224 222 222 223 220 220 223 228 232 219 183 185 207 229 215 179 211 219 222 213 210 211 208 208 208 208 207 208 207 202 195 196 198 193 191 197 205 210 216 221 229 227
228 229 231 234 237 235 230 225 224 228 230 230 231 236 237 238 239 238 236 233 230 228 226 228 236 237 218 231 236 228 209 204 219 216 223 219 221 222 225 225 226 206 164 185 192 229 221 191 202 220 223 205 209 205 200 204 207 206 207 209 203 195 193 195 193 190 193 199 205 210 215 222 230 230
228 230 230 234 238 238 234 229 223 225 229 231 234 233 233 234 237 236 235 232 229 230 234 235 238 242 231 233 239 234 206 214 219 215 220 216 216 223 238 274 255 206 196 185 176 225 215 174 203 223 216 204 213 207 206 202 203 207 209 206 199 194 193 190 189 190 195 200 204 211 217 225 231 232
232 232 232 234 239 240 239 234 223 222 224 230 235 236 238 237 237 240 236 229 224 227 230 231 237 240 237 233 235 230 219 221 224 229 236 240 235 225 231 234 219 223 198 197 195 219 220 182 197 220 210 188 211 213 210 209 206 207 208 201 196 194 190 187 186 191 198 201 205 213 221 228 235 232
233 233 231 233 240 242 242 235 223 223 215 234 237 239 242 241 242 245 242 225 228 232 235 238 241 244 246 243 240 235 223 218 212 216 225 230 203 210 228 233 220 227 187 213 206 205 226 191 192 212 201 191 204 208 212 209 209 209 205 199 196 192 189 185 187 194 198 204 206 215 224 232 241 204
237 235 232 232 237 242 246 236 225 221 207 230 238 241 245 248 248 251 244 224 229 226 231 237 242 247 249 249 249 244 232 222 208 209 224 221 195 220 222 230 221 224 207 210 187 194 225 168 186 194 188 177 225 203 202 197 205 206 206 201 196 191 188 186 190 194 201 204 208 214 227 237 242 163
241 243 238 234 235 242 247 241 230 222 207 227 235 238 242 248 252 253 245 232 240 231 224 237 240 246 245 242 240 239 231 222 214 217 226 218 205 220 221 224 219 230 231 197 173 201 213 171 202 171 147 212 247 200 191 188 186 180 188 200 202 196 189 192 189 197 203 205 208 214 228 239 228 167
241 242 245 240 234 237 244 247 240 231 213 223 235 237 241 247 255 263 252 242 240 239 235 240 233 236 239 237 236 238 237 229 223 225 225 222 216 219 224 218 213 219 219 176 176 200 204 190 193 194 184 165 212 205 173 190 181 179 178 182 190 210 204 194 198 204 205 205 208 218 229 241 203 170
241 240 239 246 238 232 236 241 246 245 234 228 238 242 244 246 254 264 263 259 248 272 275 267 255 249 245 240 237 235 234 233 228 226 226 225 221 221 222 221 217 226 218 183 178 192 197 187 193 179 205 190 164 149 202 178 180 180 184 179 189 191 185 202 196 199 209 213 218 224 235 244 217 181
241 241 237 245 288 343 354 326 286 270 266 260 260 260 263 267 269 268 265 273 359 19 265 260 261 260 256 249 243 239 238 235 232 229 225 224 226 222 221 216 212 222 221 175 171 197 195 188 190 182 191 186 211 161 141 198 188 188 169 187 193 184 183 191 192 203 196 203 217 218 229 234 235 204
256 279 301 37 44 1 347 331 316 299 289 277 248 255 266 275 281 291 286 282 268 243 260 266 269 265 261 261 254 244 241 237 233 231 226 225 224 227 225 221 216 219 202 147 184 194 198 205 190 185 189 192 178 178 174 164 184 143 155 196 199 191 192 177 188 202 199 203 216 213 220 235 235 207
2 348 360 323 314 311 302 301 295 286 278 268 272 272 270 274 281 280 279 275 268 241 230 244 254 260 260 260 259 252 244 238 232 230 229 224 222 229 238 233 220 218 188 176 187 195 193 201 197 197 186 179 180 179 188 186 130 164 178 185 194 197 186 183 196 199 200 193 191 184 172 226 230 164
309 351 326 321 330 331 323 313 307 299 293 291 280 276 277 278 269 273 272 274 273 267 251 243 246 251 254 254 255 256 254 249 243 240 241 234 219 239 230 219 215 207 198 190 187 190 197 201 190 186 184 184 184 186 170 176 160 173 170 151 189 209 190 194 185 187 184 174 179 165 190 204 211 174
323 339 353 351 346 338 338 334 329 323 312 305 301 297 291 281 276 277 281 282 280 275 272 266 260 258 260 259 260 261 258 253 243 233 219 203 215 219 221 218 214 212 208 200 190 190 193 198 179 178 182 183 185 177 173 145 169 169 162 170 165 108 191 178 185 186 163 172 184 196 214 192 204 157
46 8 5 343 330 331 320 320 288 290 304 312 315 316 309 298 292 287 281 280 283 281 281 280 277 275 271 273 271 265 261 255 242 201 205 204 211 208 210 211 212 207 208 200 196 193 192 185 178 171 172 173 178 186 174 163 156 163 173 162 155 174 188 174 184 175 174 165 142 198 222 195 182 179
37 32 16 27 32 13 10 3 0 350 340 323 311 309 307 305 299 295 291 289 280 279 280 279 282 280 279 275 271 271 267 261 245 212 214 212 213 205 200 207 214 208 204 200 202 199 187 180 176 171 166 164 174 162 151 161 161 163 167 166 170 155 136 175 182 185 154 116 116 242 243 187 180 189
38 37 32 22 15 17 3 343 334 327 327 326 313 299 298 298 302 301 304 299 295 292 291 287 284 281 278 272 268 266 265 261 251 219 221 217 212 204 202 209 208 201 198 196 195 192 181 166 160 161 166 167 162 150 149 143 156 157 159 159 157 171 181 179 171 168 120 119 184 217 221 234 208 202
77 60 62 32 358 341 352 346 341 327 319 317 324 324 318 314 309 304 298 289 288 287 281 280 280 277 277 274 272 268 264 260 250 227 216 228 227 225 217 216 211 203 200 195 191 175 161 150 141 116 115 102 89 146 158 158 151 158 147 151 159 179 197 179 191 165 149 154 173 198 223 243 237 236
66 54 51 26 4 344 297 281 294 315 328 327 323 322 319 313 312 308 302 297 295 291 288 284 279 276 276 275 273 269 265 265 260 246 221 220 212 208 204 204 205 202 198 194 180 167 159 148 137 127 116 117 107 27 20 63 130 126 118 149 171 177 191 196 174 168 151 181 146 188 208 234 268 256
78 72 49 32 359 302 316 339 337 335 328 321 319 318 323 319 317 317 313 309 307 300 294 290 286 282 278 274 273 269 267 263 258 249 233 220 222 219 220 217 211 206 195 184 165 164 153 147 148 148 144 133 128 123 158 83 114 139 159 178 183 185 181 181 171 141 149 182 198 185 187 207 227 263
72 60 60 32 9 9 360 341 338 328 321 321 321 322 321 316 314 312 306 307 304 298 295 292 288 285 283 279 276 271 263 260 259 256 246 233 222 223 223 219 213 205 189 173 162 161 155 154 157 150 141 139 140 155 144 112 110 143 162 167 181 185 173 150 134 154 197 182 199 192 191 186 222 247
70 65 53 33 17 1 342 328 324 322 327 333 331 324 318 310 306 306 308 313 309 309 305 303 298 294 289 284 280 276 265 253 253 255 253 244 234 220 214 212 207 189 173 160 165 162 159 153 152 144 135 139 138 128 124 69 59 262 197 160 167 182 157 134 145 185 220 202 198 210 160 156 220 232
57 45 34 20 4 346 339 339 322 322 323 325 327 322 317 314 315 316 320 318 318 317 316 315 314 311 307 299 288 279 277 274 269 264 254 248 237 233 219 213 195 168 153 152 150 152 148 143 136 136 131 132 137 153 142 130 169 239 190 185 167 141 165 161 174 186 191 197 238 259 264 270 330 323
36 31 25 14 350 331 324 322 321 319 323 325 325 320 318 316 316 318 321 324 322 320 320 323 324 325 324 322 310 294 277 272 268 268 268 257 246 233 228 205 177 154 154 148 151 152 149 131 121 124 120 112 108 112 121 110 88 54 26 250 195 172 168 159 168 166 194 218 168 162 243 342 258 312
32 29 7 352 321 324 319 326 324 320 320 320 318 313 312 305 308 318 320 323 324 327 331 332 334 336 336 340 341 339 332 312 315 1 57 69 57 36 285 174 109 95 112 123 106 87 77 79 85 83 83 90 100 95 84 86 108 93 351 31 204 214 168 171 172 166 191 170 167 192 219 225 236 315
22 355 330 329 336 323 324 320 325 324 319 320 323 323 316 318 314 326 329 335 339 335 336 340 343 343 343 344 351 1 31 50 50 29 36 86 74 73 56 43 77 100 91 77 81 90 92 89 84 87 95 101 101 101 116 144 147 193 234 300 175 214 215 215 202 191 182 149 129 143 182 20 47 307
339 326 344 345 332 330 330 328 323 322 319 318 321 319 317 321 331 344 342 339 340 340 339 339 344 350 355 355 357 8 19 27 42 63 73 70 83 89 94 93 82 79 83 87 87 88 87 85 91 94 98 98 96 108 129 149 152 164 172 163 188 176 213 223 231 241 244 208 197 192 182 174 132 222
293 291 326 335 342 336 326 318 312 307 313 318 314 317 326 330 338 337 334 336 341 340 335 340 345 354 359 359 11 29 33 31 27 20 27 56 77 85 90 92 96 100 100 101 95 87 89 92 101 108 106 105 106 112 130 130 163 184 183 177 148 132 211 257 262 248 259 253 248 245 236 204 204 161
301 329 333 344 344 330 317 310 311 311 317 330 341 344 341 341 338 332 333 340 341 339 342 345 349 349 348 357 19 33 30 37 42 48 52 46 42 55 72 89 96 99 101 106 103 101 100 105 104 97 97 113 126 140 148 163 181 178 183 171 194 205 191 165 163 200 231 279 243 226 233 237 242 153